EW9275 Weather Reports


time (UTC)temp
C
wind
direction
speed
KPH
gust
KPH
rain 1hr
cm
rain 24hr
cm
rain mn
cm
humidity
%
barometer
mb
20260507083016 10 0.0 0.0 0.00 0.00 0.00 91 1022.0
20260507080016 11 0.0 1.6 0.00 0.00 0.00 90 1022.0
20260507073036 11 0.0 0.0 0.00 0.00 0.00 90 1022.0
20260507070037 11 0.0 0.0 0.00 0.00 0.00 90 1022.0
20260507063016 11 0.0 0.0 0.00 0.00 0.00 88 1022.0
20260507060016 11 0.0 0.0 0.00 0.00 0.00 86 1022.0
20260507053039 11 0.0 0.0 0.00 0.00 0.00 86 1022.1
20260507050016 12 0.0 0.0 0.00 0.00 0.00 86 1022.0
20260507043015 12 0.0 0.0 0.00 0.00 0.00 88 1022.0
20260507040016 12 0.0 0.0 0.00 0.00 0.00 87 1021.8
20260507033016 12 0.0 0.0 0.00 0.00 0.00 86 1021.6
20260507030057 12 0.0 0.0 0.00 0.00 0.00 85 1021.3
20260507023036 12 0.0 0.0 0.00 0.00 0.00 84 1021.3
20260507020015 12 0.0 0.0 0.00 0.00 0.00 83 1021.2
20260507013015 13 0.0 0.0 0.00 0.00 0.00 83 1021.2
20260507010036 13 0.0 0.0 0.00 0.00 0.00 82 1021.3
20260507003015 13 0.0 1.6 0.00 0.00 0.00 80 1021.4
20260507000036 13 0.0 0.0 0.00 0.00 0.00 81 1021.4
20260506233015 13 0.0 1.6 0.00 0.00 0.00 82 1021.4
20260506230017 13 0.0 1.6 0.00 0.00 0.00 81 1021.5
20260506223017 13 0.0 1.6 0.00 0.00 0.00 81 1021.5
20260506220018 13 0.0 1.6 0.00 0.00 0.00 82 1021.8
20260506213017 13 0.0 3.2 0.00 0.00 0.00 85 1021.8
20260506210037 12 0.0 3.2 0.00 0.00 0.00 86 1021.8
20260506203017 12 0.0 1.6 0.00 0.00 0.00 86 1021.7
20260506200037 12 0.0 3.2 0.00 0.00 0.00 86 1021.6
20260506193018 12 0.0 3.2 0.00 0.00 0.00 87 1021.4
20260506190017 12 0.0 1.6 0.00 0.00 0.00 88 1021.5
20260506183017 12 0.0 1.6 0.00 0.00 0.00 89 1021.0
20260506180016 11 0.0 3.2 0.00 0.00 0.00 90 1021.2
20260506173016 11 0.0 1.6 0.00 0.00 0.00 91 1021.0
20260506170016 11 0.0 0.0 0.00 0.00 0.00 92 1020.9
20260506163018 11 0.0 1.6 0.00 0.00 0.00 92 1020.6
20260506160016 11 0.0 1.6 0.00 0.00 0.00 92 1020.8
20260506153016 11 0.0 0.0 0.00 0.00 0.00 92 1020.8
20260506150017 11 0.0 0.0 0.00 0.00 0.00 92 1020.7
20260506143017 11 0.0 1.6 0.00 0.00 0.00 92 1020.6
20260506140016 11 0.0 0.0 0.00 0.00 0.00 92 1020.8
20260506133018 11 0.0 0.0 0.00 0.00 0.00 92 1020.3
20260506130016 11 0.0 1.6 0.00 0.00 0.00 91 1020.1
20260506123016 11 0.0 0.0 0.00 0.00 0.00 91 1019.9
20260506120016 11 0.0 3.2 0.00 0.00 0.00 90 1019.7
20260506113016 12 0.0 1.6 0.00 0.00 0.00 90 1019.7
20260506110036 12 0.0 0.0 0.00 0.00 0.00 89 1019.5
20260506103016 12 0.0 0.0 0.00 0.00 0.00 89 1019.2
20260506100017 12 0.0 0.0 0.00 0.00 0.00 88 1018.7
20260506093016 12 0.0 0.0 0.00 0.00 0.00 89 1018.6
20260506090016 12 0.0 0.0 0.00 0.00 0.00 90 1018.4